N1RF KJAX-KMIA

Flight info

Callsign N1RF
Flight time 0h 58m
Altitude 33000
Route KJAX SAWGY3 OMN JIPOD TARPN3 KMIA
Aircraft C700/L-GPS/S

Departure

Time 2026-05-03 21:05
Airport Jacksonville International Airport (KJAX)

Arrival

Time 2026-05-03 22:03
Airport Miami International Airport (KMIA)
Time Latitude Longitude Altitude Speed Heading
2026-05-03 20:42 30.49798 -81.67821 31 ft 0 kts 282°
2026-05-03 20:58 30.49798 -81.67822 31 ft 0 kts 282°
2026-05-03 21:00 30.49822 -81.67833 31 ft 7 kts 320°
2026-05-03 21:00 30.49840 -81.67889 30 ft 13 kts 303°
2026-05-03 21:00 30.49926 -81.67933 30 ft 9 kts 339°
2026-05-03 21:00 30.49997 -81.67961 31 ft 12 kts 343°
2026-05-03 21:01 30.50045 -81.68033 32 ft 14 kts 257°
2026-05-03 21:01 30.50008 -81.68159 33 ft 19 kts 249°
2026-05-03 21:01 30.49953 -81.68337 30 ft 29 kts 252°
2026-05-03 21:01 30.49884 -81.68569 31 ft 31 kts 250°
2026-05-03 21:02 30.49805 -81.68813 33 ft 33 kts 250°
2026-05-03 21:02 30.49748 -81.69017 34 ft 27 kts 251°
2026-05-03 21:02 30.49684 -81.69221 35 ft 24 kts 249°
2026-05-03 21:02 30.49623 -81.69411 35 ft 27 kts 249°
2026-05-03 21:03 30.49559 -81.69629 33 ft 30 kts 252°
2026-05-03 21:03 30.49489 -81.69852 27 ft 17 kts 249°
2026-05-03 21:03 30.49427 -81.69921 28 ft 7 kts 194°
2026-05-03 21:03 30.49368 -81.69932 29 ft 10 kts 186°
2026-05-03 21:04 30.49287 -81.69988 28 ft 20 kts 218°
2026-05-03 21:04 30.49191 -81.70041 30 ft 15 kts 140°
2026-05-03 21:04 30.48989 -81.69774 31 ft 89 kts 130°
2026-05-03 21:04 30.48400 -81.68978 267 ft 155 kts 128°
2026-05-03 21:05 30.47718 -81.68028 1366 ft 154 kts 126°
2026-05-03 21:05 30.47036 -81.67093 2562 ft 141 kts 126°
2026-05-03 21:05 30.46353 -81.66134 3021 ft 172 kts 127°
2026-05-03 21:05 30.45555 -81.64998 3051 ft 194 kts 127°
2026-05-03 21:06 30.44719 -81.63727 2975 ft 199 kts 125°
2026-05-03 21:06 30.43913 -81.62414 2987 ft 200 kts 123°
2026-05-03 21:06 30.43093 -81.61082 2967 ft 205 kts 124°
2026-05-03 21:06 30.42267 -81.59790 2988 ft 204 kts 125°
2026-05-03 21:07 30.41397 -81.58511 2987 ft 201 kts 126°
2026-05-03 21:07 30.40526 -81.57221 3000 ft 205 kts 125°
2026-05-03 21:07 30.39649 -81.55931 3001 ft 204 kts 125°
2026-05-03 21:07 30.38774 -81.54649 3007 ft 203 kts 127°
2026-05-03 21:08 30.37906 -81.53368 3012 ft 203 kts 126°
2026-05-03 21:08 30.37017 -81.52065 3161 ft 209 kts 127°
2026-05-03 21:08 30.36133 -81.50776 4235 ft 205 kts 130°
2026-05-03 21:08 30.34883 -81.49981 5071 ft 214 kts 175°
2026-05-03 21:09 30.33516 -81.50463 5966 ft 212 kts 222°
2026-05-03 21:09 30.32414 -81.51601 7080 ft 220 kts 211°
2026-05-03 21:09 30.30808 -81.51809 8212 ft 255 kts 169°
2026-05-03 21:09 30.29214 -81.50678 9300 ft 289 kts 134°
2026-05-03 21:10 30.28247 -81.48561 10531 ft 310 kts 111°
2026-05-03 21:10 30.27468 -81.46130 11538 ft 335 kts 114°
2026-05-03 21:10 30.26438 -81.43661 12875 ft 345 kts 123°
2026-05-03 21:10 30.25100 -81.41325 14236 ft 352 kts 134°
2026-05-03 21:11 30.23346 -81.39262 14985 ft 376 kts 144°
2026-05-03 21:11 30.21254 -81.37307 15024 ft 405 kts 147°
2026-05-03 21:11 30.19037 -81.35228 15019 ft 414 kts 144°
2026-05-03 21:11 30.16936 -81.32913 15018 ft 421 kts 139°
2026-05-03 21:12 30.14860 -81.30507 15015 ft 421 kts 141°
2026-05-03 21:12 30.12711 -81.28237 15012 ft 418 kts 143°
2026-05-03 21:12 30.10534 -81.26021 15013 ft 418 kts 143°
2026-05-03 21:12 30.08401 -81.23730 15008 ft 419 kts 141°
2026-05-03 21:13 30.06180 -81.21581 15003 ft 413 kts 150°
2026-05-03 21:13 30.03709 -81.19933 15003 ft 408 kts 159°
2026-05-03 21:13 30.01077 -81.18777 15003 ft 402 kts 169°
2026-05-03 21:13 29.98397 -81.18127 15005 ft 396 kts 178°
2026-05-03 21:14 29.95674 -81.17850 15001 ft 393 kts 181°
2026-05-03 21:14 29.92956 -81.17565 15128 ft 389 kts 180°
2026-05-03 21:14 29.90344 -81.17280 16911 ft 363 kts 181°
2026-05-03 21:14 29.87917 -81.17036 19179 ft 341 kts 182°
2026-05-03 21:15 29.85525 -81.16813 20313 ft 350 kts 183°
2026-05-03 21:15 29.83074 -81.16574 21394 ft 356 kts 183°
2026-05-03 21:15 29.80593 -81.16317 22462 ft 361 kts 183°
2026-05-03 21:15 29.78075 -81.16059 23507 ft 366 kts 184°
2026-05-03 21:16 29.75558 -81.15808 24413 ft 370 kts 184°
2026-05-03 21:16 29.72988 -81.15548 25397 ft 372 kts 184°
2026-05-03 21:16 29.70400 -81.15287 26347 ft 375 kts 184°
2026-05-03 21:16 29.67789 -81.15025 27241 ft 378 kts 185°
2026-05-03 21:17 29.65155 -81.14761 28115 ft 382 kts 185°
2026-05-03 21:17 29.62497 -81.14494 29006 ft 385 kts 185°
2026-05-03 21:17 29.59820 -81.14225 29875 ft 388 kts 185°
2026-05-03 21:17 29.57116 -81.13953 30654 ft 392 kts 185°
2026-05-03 21:18 29.54377 -81.13680 31302 ft 398 kts 186°
2026-05-03 21:18 29.51604 -81.13402 31910 ft 403 kts 186°
2026-05-03 21:18 29.48747 -81.13126 31985 ft 421 kts 186°
2026-05-03 21:18 29.45827 -81.12835 31987 ft 434 kts 185°
2026-05-03 21:19 29.42757 -81.12523 31997 ft 452 kts 185°
2026-05-03 21:19 29.39576 -81.12202 32003 ft 463 kts 185°
2026-05-03 21:19 29.33148 -81.11243 31990 ft 472 kts 177°
2026-05-03 21:20 29.26829 -81.08787 31989 ft 490 kts 165°
2026-05-03 21:20 29.20779 -81.04920 31988 ft 501 kts 160°
2026-05-03 21:21 29.14781 -81.00966 31991 ft 501 kts 160°
2026-05-03 21:21 29.08781 -80.96984 32093 ft 500 kts 160°
2026-05-03 21:22 29.02747 -80.93005 32094 ft 500 kts 160°
2026-05-03 21:22 28.96747 -80.89039 32090 ft 497 kts 160°
2026-05-03 21:23 28.90746 -80.85091 32089 ft 499 kts 160°
2026-05-03 21:23 28.84711 -80.81116 32089 ft 501 kts 160°
2026-05-03 21:24 28.78735 -80.77186 32067 ft 498 kts 160°
2026-05-03 21:24 28.72743 -80.73256 32058 ft 497 kts 160°
2026-05-03 21:25 28.66725 -80.69313 32056 ft 501 kts 160°
2026-05-03 21:25 28.60697 -80.65362 32055 ft 499 kts 160°
2026-05-03 21:26 28.54696 -80.61442 32039 ft 497 kts 160°
2026-05-03 21:26 28.48719 -80.57543 32036 ft 501 kts 160°
2026-05-03 21:27 28.42679 -80.53599 32033 ft 499 kts 160°
2026-05-03 21:27 28.36672 -80.49691 32037 ft 497 kts 160°
2026-05-03 21:28 28.30653 -80.45779 32040 ft 500 kts 160°
2026-05-03 21:28 28.24601 -80.41846 32040 ft 501 kts 160°
2026-05-03 21:29 28.18558 -80.37926 32042 ft 500 kts 160°
2026-05-03 21:29 28.12567 -80.34046 31815 ft 498 kts 160°
2026-05-03 21:30 28.09581 -80.32222 31392 ft 475 kts 165°
2026-05-03 21:30 28.06596 -80.30849 30984 ft 454 kts 170°
2026-05-03 21:30 28.03626 -80.29650 30592 ft 457 kts 169°
2026-05-03 21:30 28.00610 -80.28416 30195 ft 464 kts 169°
2026-05-03 21:31 27.97590 -80.27155 29759 ft 460 kts 168°
2026-05-03 21:31 27.94609 -80.25916 29355 ft 453 kts 169°
2026-05-03 21:31 27.91651 -80.24713 28958 ft 451 kts 169°
2026-05-03 21:31 27.88694 -80.23512 28566 ft 451 kts 169°
2026-05-03 21:32 27.85748 -80.22297 28173 ft 450 kts 168°
2026-05-03 21:32 27.82816 -80.21086 27783 ft 448 kts 168°
2026-05-03 21:32 27.79894 -80.19891 27398 ft 446 kts 169°
2026-05-03 21:32 27.77027 -80.18721 27013 ft 443 kts 169°
2026-05-03 21:33 27.74134 -80.17537 26628 ft 441 kts 168°
2026-05-03 21:33 27.71258 -80.16357 26244 ft 439 kts 168°
2026-05-03 21:33 27.68394 -80.15188 25865 ft 437 kts 168°
2026-05-03 21:33 27.65539 -80.14023 25487 ft 435 kts 168°
2026-05-03 21:34 27.62695 -80.12860 25103 ft 434 kts 168°
2026-05-03 21:34 27.59869 -80.11706 24724 ft 431 kts 168°
2026-05-03 21:34 27.57063 -80.10562 24351 ft 429 kts 168°
2026-05-03 21:34 27.54256 -80.09418 23977 ft 427 kts 168°
2026-05-03 21:35 27.51471 -80.08283 23602 ft 425 kts 168°
2026-05-03 21:35 27.48736 -80.07168 23200 ft 422 kts 168°
2026-05-03 21:35 27.45988 -80.06050 22822 ft 419 kts 168°
2026-05-03 21:35 27.43252 -80.04937 22459 ft 418 kts 168°
2026-05-03 21:36 27.40513 -80.03826 22096 ft 418 kts 168°
2026-05-03 21:36 27.37784 -80.02716 21728 ft 416 kts 168°
2026-05-03 21:36 27.35070 -80.01611 21366 ft 414 kts 167°
2026-05-03 21:36 27.32369 -80.00514 21006 ft 412 kts 167°
2026-05-03 21:37 27.29600 -79.99404 20643 ft 434 kts 167°
2026-05-03 21:37 27.26753 -79.98249 20260 ft 433 kts 166°
2026-05-03 21:37 27.23933 -79.97087 19882 ft 431 kts 166°
2026-05-03 21:37 27.21121 -79.95950 19509 ft 429 kts 167°
2026-05-03 21:38 27.18313 -79.94823 19130 ft 427 kts 166°
2026-05-03 21:38 27.15613 -79.93722 18770 ft 409 kts 166°
2026-05-03 21:38 27.12968 -79.92646 18417 ft 404 kts 166°
2026-05-03 21:38 27.10293 -79.91579 18030 ft 410 kts 166°
2026-05-03 21:39 27.07612 -79.90498 17662 ft 408 kts 166°
2026-05-03 21:39 27.04947 -79.89412 17303 ft 407 kts 166°
2026-05-03 21:39 27.02286 -79.88338 16921 ft 407 kts 166°
2026-05-03 21:39 26.99595 -79.87259 16556 ft 414 kts 166°
2026-05-03 21:40 26.96880 -79.86164 16197 ft 414 kts 165°
2026-05-03 21:40 26.94164 -79.85115 15833 ft 410 kts 169°
2026-05-03 21:40 26.91400 -79.84535 15469 ft 400 kts 178°
2026-05-03 21:40 26.88652 -79.84420 15129 ft 391 kts 187°
2026-05-03 21:41 26.85961 -79.84761 14799 ft 389 kts 195°
2026-05-03 21:41 26.83398 -79.85522 14460 ft 383 kts 202°
2026-05-03 21:41 26.80906 -79.86533 14135 ft 381 kts 204°
2026-05-03 21:41 26.78409 -79.87515 13790 ft 380 kts 203°
2026-05-03 21:42 26.75916 -79.88495 13442 ft 378 kts 203°
2026-05-03 21:42 26.73451 -79.89480 13112 ft 376 kts 203°
2026-05-03 21:42 26.70992 -79.90461 12783 ft 374 kts 203°
2026-05-03 21:42 26.68543 -79.91431 12461 ft 373 kts 203°
2026-05-03 21:43 26.66095 -79.92402 12134 ft 373 kts 203°
2026-05-03 21:43 26.63655 -79.93368 11811 ft 372 kts 203°
2026-05-03 21:43 26.61253 -79.94324 11493 ft 371 kts 203°
2026-05-03 21:43 26.58833 -79.95281 11169 ft 367 kts 202°
2026-05-03 21:44 26.56433 -79.96230 10852 ft 354 kts 202°
2026-05-03 21:44 26.54291 -79.97067 10550 ft 310 kts 203°
2026-05-03 21:44 26.52346 -79.97841 10286 ft 287 kts 204°
2026-05-03 21:44 26.50422 -79.98689 10028 ft 298 kts 206°
2026-05-03 21:45 26.48633 -79.99533 9759 ft 272 kts 206°
2026-05-03 21:45 26.46840 -80.00375 9504 ft 284 kts 206°
2026-05-03 21:45 26.45025 -80.01212 9263 ft 281 kts 206°
2026-05-03 21:45 26.43210 -80.02010 9022 ft 280 kts 201°
2026-05-03 21:46 26.41311 -80.02392 9001 ft 278 kts 189°
2026-05-03 21:46 26.39367 -80.02608 8997 ft 283 kts 190°
2026-05-03 21:46 26.37434 -80.02855 8997 ft 284 kts 190°
2026-05-03 21:46 26.35471 -80.03089 8997 ft 284 kts 190°
2026-05-03 21:47 26.33508 -80.03317 8999 ft 282 kts 190°
2026-05-03 21:47 26.31558 -80.03547 8997 ft 283 kts 190°
2026-05-03 21:47 26.29610 -80.03778 8989 ft 280 kts 190°
2026-05-03 21:47 26.27667 -80.04009 8990 ft 281 kts 190°
2026-05-03 21:48 26.25820 -80.04625 8984 ft 276 kts 214°
2026-05-03 21:48 26.24523 -80.06146 8989 ft 272 kts 243°
2026-05-03 21:48 26.24069 -80.08136 8989 ft 270 kts 266°
2026-05-03 21:48 26.24080 -80.10217 8990 ft 267 kts 271°
2026-05-03 21:49 26.24173 -80.12280 8991 ft 267 kts 272°
2026-05-03 21:49 26.24290 -80.14359 8991 ft 270 kts 272°
2026-05-03 21:49 26.24415 -80.16447 8994 ft 271 kts 272°
2026-05-03 21:49 26.24541 -80.18536 8995 ft 270 kts 272°
2026-05-03 21:50 26.24668 -80.20625 8999 ft 270 kts 272°
2026-05-03 21:50 26.24793 -80.22705 8999 ft 269 kts 272°
2026-05-03 21:50 26.24919 -80.24779 9004 ft 268 kts 272°
2026-05-03 21:50 26.25045 -80.26859 9000 ft 270 kts 272°
2026-05-03 21:51 26.25172 -80.28950 9002 ft 271 kts 272°
2026-05-03 21:51 26.25297 -80.31051 9006 ft 272 kts 273°
2026-05-03 21:51 26.25425 -80.33118 9002 ft 270 kts 272°
2026-05-03 21:51 26.25512 -80.35195 8999 ft 268 kts 265°
2026-05-03 21:52 26.24907 -80.37136 8993 ft 268 kts 240°
2026-05-03 21:52 26.23814 -80.38829 8990 ft 270 kts 234°
2026-05-03 21:52 26.22652 -80.40470 8994 ft 270 kts 233°
2026-05-03 21:52 26.21472 -80.42102 9008 ft 271 kts 232°
2026-05-03 21:53 26.20283 -80.43745 9006 ft 273 kts 233°
2026-05-03 21:53 26.19096 -80.45367 9010 ft 269 kts 232°
2026-05-03 21:53 26.17936 -80.46958 9008 ft 269 kts 232°
2026-05-03 21:53 26.16756 -80.48599 9001 ft 271 kts 233°
2026-05-03 21:54 26.15558 -80.50205 9005 ft 273 kts 229°
2026-05-03 21:54 26.13936 -80.51362 8997 ft 286 kts 201°
2026-05-03 21:54 26.11949 -80.51546 8994 ft 290 kts 179°
2026-05-03 21:54 26.09972 -80.51206 8985 ft 284 kts 173°
2026-05-03 21:55 26.08064 -80.50781 8696 ft 280 kts 173°
2026-05-03 21:55 26.06147 -80.50349 8145 ft 279 kts 173°
2026-05-03 21:55 26.04263 -80.50171 7874 ft 268 kts 184°
2026-05-03 21:55 26.02430 -80.50237 7613 ft 258 kts 186°
2026-05-03 21:56 26.00688 -80.50298 7362 ft 250 kts 184°
2026-05-03 21:56 25.98996 -80.50236 7079 ft 237 kts 181°
2026-05-03 21:56 25.97414 -80.50150 6992 ft 218 kts 182°
2026-05-03 21:56 25.95929 -80.50099 6638 ft 208 kts 183°
2026-05-03 21:57 25.94522 -80.50053 5540 ft 200 kts 182°
2026-05-03 21:57 25.93220 -80.50004 5452 ft 184 kts 182°
2026-05-03 21:57 25.91867 -80.49967 5375 ft 207 kts 182°
2026-05-03 21:57 25.90427 -80.49915 5110 ft 207 kts 181°
2026-05-03 21:58 25.88969 -80.49860 4835 ft 211 kts 181°
2026-05-03 21:58 25.87514 -80.49808 4552 ft 208 kts 181°
2026-05-03 21:58 25.86063 -80.49755 4256 ft 208 kts 181°
2026-05-03 21:58 25.84612 -80.49706 3991 ft 209 kts 181°
2026-05-03 21:59 25.83181 -80.49602 3726 ft 211 kts 172°
2026-05-03 21:59 25.81828 -80.48998 3446 ft 210 kts 151°
2026-05-03 21:59 25.80714 -80.47951 3156 ft 211 kts 133°
2026-05-03 21:59 25.79971 -80.46551 2913 ft 214 kts 113°
2026-05-03 22:00 25.79674 -80.44947 2617 ft 209 kts 92°
2026-05-03 22:00 25.79746 -80.43347 2327 ft 208 kts 86°
2026-05-03 22:00 25.79812 -80.41750 2047 ft 206 kts 87°
2026-05-03 22:00 25.79873 -80.40178 1778 ft 203 kts 86°
2026-05-03 22:01 25.79939 -80.38621 1510 ft 197 kts 87°
2026-05-03 22:01 25.79996 -80.37245 1273 ft 157 kts 86°
2026-05-03 22:01 25.80045 -80.36075 1067 ft 143 kts 86°
2026-05-03 22:01 25.80088 -80.35049 884 ft 131 kts 86°
2026-05-03 22:02 25.80134 -80.34027 726 ft 133 kts 87°
2026-05-03 22:02 25.80190 -80.33042 565 ft 122 kts 87°
2026-05-03 22:02 25.80223 -80.32114 396 ft 119 kts 87°
2026-05-03 22:02 25.80254 -80.31193 230 ft 120 kts 87°
2026-05-03 22:03 25.80289 -80.30287 79 ft 114 kts 88°
2026-05-03 22:03 25.80319 -80.29469 13 ft 88 kts 87°
2026-05-03 22:03 25.80337 -80.29032 13 ft 45 kts 88°
2026-05-03 22:03 25.80360 -80.28735 12 ft 33 kts 79°
2026-05-03 22:04 25.80422 -80.28577 11 ft 21 kts 35°
2026-05-03 22:04 25.80471 -80.28591 11 ft 1 kts 311°
2026-05-03 22:04 25.80466 -80.28647 12 ft 16 kts 262°
2026-05-03 22:04 25.80456 -80.28817 12 ft 25 kts 267°
2026-05-03 22:05 25.80449 -80.28970 9 ft 18 kts 268°
2026-05-03 22:05 25.80480 -80.29140 11 ft 23 kts 315°
2026-05-03 22:05 25.80544 -80.29136 11 ft 14 kts
2026-05-03 22:05 25.80634 -80.29103 10 ft 12 kts 78°
2026-05-03 22:06 25.80575 -80.29060 10 ft 9 kts 178°
2026-05-03 22:06 25.80574 -80.29060 10 ft 0 kts 180°